Wind_Speed
9 10 12 13 13 14 14 14 14 14 14 13 13 12 13 13 13 13 14 13 15 16 15 16 15 17 18 18 18 18 17 17 16 17 16 16 16 16 16 16 14 13 13
15 12 14 14 14 12 14 14 12 13 12 11 12 11 12 12 13 14 13 13 14 14 14 14 16 15 18 18 17 17 17 16 16 16 16 15 16 14 14 14 15 13 13
15 14 13 14 14 11 12 13 12 11 11 12 12 13 13 13 14 14 14 13 13 13 13 13 14 15 16 16 16 16 17 15 14 14 14 13 12 12 13 13 13 12 12
16 14 13 14 13 12 13 12 11 11 11 13 13 14 13 13 13 14 13 13 13 12 12 13 13 13 14 13 14 15 14 14 13 13 12 12 12 12 13 12 11 11 11
14 13 12 13 12 12 12 12 11 11 12 14 12 13 12 14 13 13 13 13 12 12 12 12 12 12 12 12 12 12 11 11 12 12 11 11 11 11 12 12 10 10 8
14 13 12 13 12 12 11 12 13 13 13 13 12 12 12 12 12 12 12 11 12 12 11 11 11 11 11 10 9 7 6 7 9 9 10 11 11 11 10 10 10 8 6
13 13 12 13 12 13 12 11 12 13 12 11 11 10 11 11 11 10 10 11 12 12 12 11 11 11 12 11 11 12 13 10 9 9 9 10 9 9 9 9 10 9 8
14 12 12 12 12 11 11 11 12 11 12 11 11 9 10 10 10 9 9 9 11 12 12 11 11 12 14 13 12 12 10 10 10 9 9 8 8 9 10 9 10 10 10
13 12 12 11 11 10 11 11 10 10 10 9 9 8 7 7 7 7 8 8 9 11 11 12 11 11 12 10 9 10 11 11 9 8 8 8 7 10 10 9 9 9 9
12 12 12 11 11 10 10 10 10 10 9 8 8 7 7 6 5 5 7 7 8 10 11 11 11 10 9 9 10 8 11 12 9 8 9 7 9 9 9 9 9 8 8
11 11 12 11 11 10 9 8 8 8 8 7 7 7 7 7 7 7 7 9 9 10 12 11 11 9 8 8 8 7 9 8 8 8 8 7 8 10 11 11 11 9 8
12 11 11 12 11 10 8 8 7 6 5 6 7 8 8 9 8 8 9 10 10 10 12 10 9 8 8 6 7 8 7 8 8 7 7 8 9 10 11 11 10 9 9
14 12 11 11 11 9 8 7 5 4 5 6 6 7 9 10 10 10 10 11 11 12 11 10 8 7 5 5 5 6 6 5 6 6 5 7 7 9 10 10 11 11 11
15 13 12 11 11 10 7 6 5 3 3 4 6 8 10 9 11 12 10 11 12 11 11 9 8 7 5 3 5 7 7 6 5 4 4 4 5 7 8 10 10 9 11
13 14 12 13 12 12 10 8 7 4 4 4 5 8 8 9 10 10 12 10 11 11 10 9 8 6 4 2 4 4 5 4 4 3 3 3 3 5 6 6 7 8 9
13 14 13 12 13 11 10 9 8 5 3 3 6 8 8 8 6 10 11 10 12 10 10 8 7 4 2 0 3 4 5 5 5 4 3 3 4 4 5 5 5 7 7
16 15 14 13 13 11 9 9 7 6 3 4 8 8 8 5 6 7 8 9 10 11 9 7 5 3 2 4 6 6 6 6 5 5 4 4 5 8 6 6 6 6 7
17 17 15 12 12 11 10 9 6 5 5 4 6 6 6 6 7 8 8 9 9 8 7 6 4 4 4 4 4 3 4 5 6 5 6 6 7 6 9 10 10 9 9
18 17 17 15 12 11 11 10 8 6 4 5 5 6 6 6 8 10 9 11 11 8 7 6 4 4 3 3 3 3 5 6 6 5 8 9 9 10 9 11 12 13 12
18 18 17 16 14 13 12 10 8 7 7 5 3 3 5 7 8 10 10 11 10 8 6 6 7 6 5 4 5 6 6 6 7 8 10 10 11 11 11 12 11 11 15
19 18 19 17 17 14 11 8 7 8 7 5 4 4 6 7 9 11 11 11 9 6 5 5 6 5 4 4 3 4 6 7 8 10 10 11 12 12 12 12 13 12 12
22 22 19 20 20 18 14 10 7 8 7 6 6 4 8 10 9 8 10 10 9 8 6 6 5 4 2 2 1 2 3 1 3 6 7 9 11 12 13 13 13 13 13
23 23 23 22 24 21 18 14 8 10 10 8 8 7 9 9 9 9 9 8 9 9 8 9 8 6 2 4 3 2 2 3 11 2 4 6 9 11 11 12 12 13 14
26 24 25 26 24 24 23 16 12 10 13 11 10 9 10 9 10 11 10 9 8 10 12 10 9 8 5 4 3 4 4 3 3 4 4 4 10 9 9 10 11 13 13
26 25 25 28 28 23 25 21 16 11 10 10 11 11 12 10 10 12 12 10 8 7 11 11 10 8 8 6 4 2 2 2 2 3 5 9 9 7 9 9 9 10 10
28 26 24 26 32 31 27 26 23 17 14 12 12 12 10 9 10 13 11 10 8 6 7 11 11 9 8 6 5 4 4 3 3 3 3 7 9 8 8 8 9 13 12
Wind_Direction
157 149 147 136 135 139 136 133 130 127 123 119 117 115 117 112 115 114 108 107 97 99 94 97 99 99 103 100 98 93 92 94 93 85 81 83 82 80 82 86 80 82 85
147 145 145 142 135 138 146 141 133 130 126 119 119 121 113 111 111 109 108 103 106 101 100 102 101 97 97 98 95 92 91 96 94 90 80 79 78 78 78 79 79 78 82
141 142 142 144 136 132 134 142 129 128 128 127 127 123 121 113 109 113 108 107 108 106 104 99 103 101 99 96 95 89 89 92 96 97 83 83 82 81 83 82 78 73 72
142 143 143 140 138 132 133 139 132 134 132 130 126 117 116 111 108 106 107 105 105 109 108 103 95 95 93 98 96 95 90 90 89 83 80 80 78 77 75 73 73 73 68
141 142 139 137 133 129 130 138 134 125 123 120 122 119 114 114 110 107 105 103 102 104 107 110 98 97 99 97 99 89 85 86 84 77 77 75 75 69 62 72 64 63 71
140 137 143 138 132 128 122 122 126 126 126 127 126 119 115 114 111 111 111 106 103 100 102 106 103 100 101 97 86 67 81 84 80 73 71 65 67 69 69 69 64 69 71
140 138 137 131 136 130 125 125 125 125 124 123 121 118 110 114 113 115 114 112 107 105 101 101 102 100 93 84 76 67 84 74 73 68 66 66 62 68 69 64 57 58 57
141 134 135 135 129 130 136 130 122 123 120 121 117 120 118 121 121 119 112 108 111 111 112 116 109 99 89 91 82 82 70 75 73 72 73 72 68 58 60 63 54 53 50
143 138 135 137 132 134 132 133 128 126 120 126 123 117 113 115 121 125 128 131 129 123 118 116 113 105 97 90 81 79 75 76 71 70 70 67 54 54 54 49 46 41 36
147 148 142 138 141 138 134 137 138 135 132 128 120 113 105 101 117 135 142 149 143 133 128 123 124 111 98 87 84 85 67 63 65 63 60 60 52 48 45 41 39 36 35
159 154 153 149 145 145 141 145 136 138 136 132 123 123 121 123 119 122 146 151 150 144 141 135 135 132 116 98 80 71 68 61 60 59 57 53 45 41 40 48 50 43 31
167 165 165 159 155 148 148 151 152 152 148 140 139 134 120 121 119 127 123 136 143 142 142 142 141 143 111 88 59 54 64 50 53 58 54 52 39 39 43 47 47 45 45
170 173 173 168 160 156 161 161 160 160 153 147 144 139 132 128 118 110 119 126 136 137 141 138 136 126 107 75 60 45 35 38 46 51 46 50 38 38 45 46 45 45 42
172 178 174 175 170 167 170 169 175 164 156 162 160 146 135 130 127 115 120 125 135 144 141 139 131 126 120 90 56 39 40 44 39 39 23 37 28 33 36 37 36 39 38
181 178 183 178 176 171 167 170 172 166 135 132 154 152 141 138 126 121 120 117 124 132 136 134 139 139 130 85 44 25 19 17 15 7 4 344 0 10 18 21 23 24 28
183 184 179 183 170 172 168 174 171 164 154 144 149 168 152 145 126 131 127 120 121 127 132 136 140 145 129 18 320 316 311 316 319 322 310 315 312 317 333 354 349 357 6
178 177 181 181 176 175 169 171 176 159 167 155 148 157 163 160 171 142 145 136 135 133 133 140 156 186 254 280 291 300 309 302 299 282 278 280 293 302 294 300 310 316 325
174 183 180 186 188 184 180 172 185 190 163 158 166 165 157 159 152 158 155 158 156 155 167 191 207 232 249 263 285 309 313 316 306 286 273 272 278 278 289 288 287 295 305
181 184 186 188 189 185 182 167 169 174 179 175 158 160 164 163 166 163 157 157 152 160 177 186 200 210 245 271 288 300 306 300 292 269 272 270 272 274 278 284 288 286 289
192 190 190 187 184 178 174 171 177 187 196 207 197 174 170 170 169 166 164 163 158 162 189 206 215 229 239 263 280 284 290 279 274 270 272 274 273 274 276 275 279 284 288
197 191 198 193 189 188 176 170 159 179 191 213 211 188 182 183 170 175 175 180 182 180 175 184 194 213 238 265 296 301 277 273 270 273 273 268 270 275 275 276 277 279 282
200 198 197 198 194 192 190 183 167 173 191 198 200 191 168 162 173 176 182 193 195 187 186 172 182 188 211 203 300 302 317 292 299 292 276 273 278 281 280 277 273 280 282
202 202 202 198 199 197 190 192 186 174 173 183 201 205 191 189 197 197 198 193 207 209 208 208 211 220 213 232 237 296 304 340 327 311 329 298 291 286 286 281 277 281 287
203 204 205 207 200 202 196 192 196 188 177 189 195 201 207 212 221 209 205 214 226 225 220 220 226 231 239 246 238 244 257 282 322 323 327 331 336 319 306 299 294 294 290
206 201 202 206 206 202 200 199 198 198 199 192 193 197 205 218 213 205 207 216 221 221 220 225 235 242 252 261 247 227 258 278 272 287 322 337 346 347 342 341 339 333 314
205 203 200 199 206 208 208 202 204 204 205 203 198 195 201 209 207 208 215 222 222 226 233 235 239 249 258 268 280 265 263 287 306 295 301 331 327 337 341 1 15 15 4
Height
818 819 820 821 822 824 824 825 826 827 828 830 831 831 831 832 834 835 837 836 837 838 838 838 839 841 842 843 844 844 844 844 844 844 844 844 845 846 846 847 849 849 849
817 820 821 821 823 824 825 826 828 830 831 832 833 833 834 835 836 837 838 839 840 840 840 841 842 844 845 846 847 847 847 847 847 848 849 848 848 849 849 850 851 851 851
818 821 823 823 825 827 828 829 829 832 833 834 834 835 835 837 838 839 841 842 842 843 843 844 845 846 847 848 848 848 849 850 850 851 851 852 852 851 851 852 853 853 853
820 822 824 825 826 828 830 831 832 833 834 835 836 838 838 840 841 841 843 844 845 846 846 847 848 849 850 850 851 852 852 853 853 854 854 854 855 854 854 855 855 855 855
821 824 826 828 828 831 832 833 835 834 837 838 839 839 841 842 843 844 845 846 847 848 849 850 851 852 852 853 853 854 854 855 855 856 856 857 858 858 857 858 858 858 858
824 827 828 829 831 831 833 835 836 837 839 840 841 842 843 845 844 846 846 848 849 850 851 852 854 854 854 854 855 855 855 856 857 858 859 860 861 860 860 861 861 860 860
826 829 831 832 833 833 835 837 838 839 841 841 843 844 846 846 847 848 848 850 851 852 854 855 856 857 857 857 857 857 858 859 860 861 862 863 863 863 862 862 862 862 862
828 830 833 834 835 836 836 838 840 842 843 844 845 846 847 848 849 850 851 852 853 855 856 857 859 859 860 861 860 861 861 862 863 863 864 865 865 864 864 863 863 862 862
830 832 834 836 837 838 839 840 842 844 844 845 847 848 849 850 851 851 852 853 854 856 857 859 860 861 862 862 863 864 864 864 865 865 866 867 866 866 865 864 864 863 862
832 833 835 837 840 841 842 843 844 846 846 847 848 849 850 851 852 852 853 854 855 858 859 860 861 862 864 865 865 866 865 864 866 867 868 868 867 867 866 865 864 863 863
833 835 836 838 840 842 844 845 846 847 847 849 849 849 850 851 853 854 854 855 857 858 860 861 862 864 865 866 867 867 866 867 868 869 870 869 869 868 867 865 865 864 863
834 836 837 839 841 843 845 846 847 848 848 849 850 850 851 853 854 855 855 856 858 860 862 863 865 866 868 870 870 869 870 870 870 871 872 870 871 870 868 867 866 865 864
833 836 838 840 841 844 846 847 847 848 848 850 850 851 851 852 854 855 856 858 860 862 864 866 867 870 870 871 870 872 872 872 873 873 873 872 872 871 870 868 867 866 866
832 836 838 840 842 843 845 848 848 849 849 850 851 852 853 854 855 856 857 859 861 864 865 867 869 870 871 871 872 873 873 873 874 875 875 874 873 873 872 871 870 869 868
833 835 838 839 842 843 844 847 848 849 850 850 851 852 854 855 856 857 859 861 863 865 867 869 870 871 872 873 874 874 875 875 875 876 876 874 874 874 874 873 872 872 871
833 836 838 840 841 843 844 847 848 850 851 851 852 853 854 856 857 859 860 863 865 867 869 871 872 872 874 875 876 876 876 876 876 876 877 876 874 875 874 874 874 874 873
831 836 838 840 842 843 845 847 848 850 851 852 853 854 856 857 858 861 862 864 867 868 870 872 873 874 876 877 877 876 876 876 876 876 876 876 875 874 874 874 874 874 873
831 833 837 841 843 844 845 847 849 850 852 853 854 855 856 858 860 862 863 866 867 869 871 872 874 876 876 877 876 876 876 876 876 875 875 875 874 875 874 873 873 873 872
829 834 836 839 843 845 846 847 849 851 852 854 855 856 857 859 861 863 865 866 868 870 871 873 874 875 876 876 876 876 876 875 874 874 873 872 872 872 873 872 871 871 870
830 833 836 839 841 844 846 848 850 851 853 855 856 857 858 860 862 863 866 867 869 870 872 873 874 874 875 876 876 876 875 873 872 872 871 871 870 870 870 869 869 869 867
829 832 835 838 840 843 846 848 850 852 854 855 857 858 859 860 862 864 865 867 869 870 871 872 873 874 875 875 875 875 873 872 871 870 870 868 868 868 868 867 866 867 866
825 828 833 836 838 841 845 847 849 851 854 856 857 859 860 861 863 864 866 867 868 870 871 872 873 874 874 874 875 875 871 871 870 869 867 866 866 866 866 865 864 863 863
821 825 829 833 836 840 843 846 848 850 853 856 858 859 860 861 862 864 866 867 868 870 872 872 872 873 874 874 874 876 872 870 870 867 865 865 864 864 863 863 862 861 859
815 822 825 829 834 837 841 844 847 850 851 854 857 859 861 861 862 864 866 867 868 868 869 871 871 872 873 874 874 874 874 874 871 867 866 865 863 862 861 860 859 857 856
812 816 821 826 830 835 838 841 844 847 850 853 855 858 859 861 862 863 865 867 868 868 868 869 871 872 872 872 873 873 873 873 872 872 866 866 864 862 860 858 857 855 853
806 812 818 822 825 831 835 838 841 843 848 851 854 856 858 860 861 862 863 865 866 867 868 868 869 870 872 871 871 872 873 873 872 872 870 868 866 862 860 858 857 855 853